Find Starlink 32406

NORAD ID: 61545 Int'l Des: 2024-184 Owner: SPXS Country: US Constellation: starlink operational
LEOCIRCULAR

Live-Position

3D-Globus wird geladen...

Über Starlink 32406

Beschreibung wird geladen...

Nächste Überflüge

Passes for default location (London). Set your location on the main map for personalized predictions.

Höhenverlauf

Loading altitude history...

Zweizeiliger Elementsatz

1 61545U 24184P 26126.34880568 .00001440 00000-0 60745-4 0 9994
2 61545 53.1600 106.2044 0001306 76.9544 283.1602 15.30200744 87339
Epoch: 6. Mai 2026 • Age: 10 hours

Aktueller Status

Höhe 479.2 km
Geschwindigkeit 7.63 km/s
Subsatellitenpunkt 45.69°N, 18.7°E
Startdatum 15. Okt. 2024
Alter 1.5 years
Typ internet

Technische Details

Klassifizierung Payload
Masse 730.00 kg
Trockenmasse 700.00 kg
Gesamtmasse 730.00 kg
Länge 0.30 m
Durchmesser 4.10 m
Spannweite 29.00 m
Form Box + pan
Hersteller SPXS
Bus-Typ Starlink V2M
Phasenstatus In Orbit
Besitzer/Staat SPXS/US

Most Searched